STARLINK-31253, 58830

Orbit data source: Space-Track

STARLINK-31253, 58830 is a payload satellite owned by SpaceX/Seattle (US) in LEO that was launched on Wed, 24 Jan 2024 UTC via an FALCON 9 launch vehicle from the Air Force Western Test Range (AFWTR). Payload-class satellites include a variety of spacecraft equipped with specific instruments for various scientific and technological missions. These include communications satellites like Starlink; space stations such as the ISS; scientific satellites like the Hubble; Earth observation satellites from companies like Planet Labs, Umbra, and HawkEye 360; GPS; miniature CubeSats for education and research; and military/defense satellites.

Loading next visibility...
Identifier
58830, 2024-017E
Orbit
LEO
Country
Flag of USUS
Related business
Manufacturer
SpaceX/Seattle
Mission
Operational Commercial Communications
Bus & Motor
STARLINK V2M, Unknown motor
Mass
730 kg wet, ~700 kg dry
Launch date (UTC)
2024-01-24 (2 years ago)
Launch vehicle
FALCON 9
Launch site
Air Force Western Test Range (AFWTR)
Object type
Payload
Rocket body
Debris
Shape & HBR
Box + 2 Pan, 17.7 m
Radar Cross Section
33.884 m², Large (>1 m²)

Expand to show TLE details & history
Last TLE update: 2 days ago

TLE from 2 days ago
0 STARLINK-31253
1 58830U 24017E   26171.14940405  .00002888  00000-0  10481-3 0  9995
2 58830  53.1610  87.6723 0001486  85.4749 274.6422 15.31699495135751
Epoch: 2026-06-20T03:35Z
TLE epoch observation values (Epoch: 2026-06-20T03:35:08.509Z)
Latitude
-0.00006°
Longitude
125.51863°
Altitude
471.56 km
Speed
7.632 km/s
True Right ascension
05h 50m 41s
True Declination
0° 00' 00"
Sunlit
Object was in daylight at epoch
Visualization orbit readout
Latitude
Unknown
Longitude
Unknown
Altitude
Unknown
Speed
Unknown
Apparent Right ascension
Unknown
Apparent Declination
Unknown
Sunlit
N/A
Visualization observer readout
Local Sidereal Time
21:26:03
Azimuth
Unknown
Elevation
Unknown
Doppler factor
Unknown
Orbital elements
Apogee altitude
472.016 km
Perigee altitude
469.98 km
Semi-major axis
6,849.135 km
Eccentricity
0.00015
Inclination
53.161°
RAAN
87.6723°
Arg. of periapsis
85.4749°
True anomaly
274.62523°
Mean anomaly
274.6422°
Eccentric anomaly
274.63371°
Mean motion
3.82904 °/min
Orbital period
94.02 mins
BSTAR
0.00010481
Loading maneuver chart data...
Computing Atmospheric mass density...
Loading historical data...
Loading historical data...
Loading historical data...
Loading historical data...
Loading historical data...
Loading historical data...
Loading historical data...

Documentation

Showing up to 5 results
|